Parsons Landing, Santa Catalina Island Weather observations

Data are for 10 minute period ending at time listed.
 Day   Time   Solar   Ave.   Ave.  Ave.  Vector    Max.   Stn.   Total 
  of    of     Rad.   Air    Rel.  Wind   Wind     Wind   Baro. Precip. 
Year   Day            Temp.  Hum.  Speed  Dir.     Gust   Pres.         
2015   (PST)   W/m2    F      %     mph   deg.      mph    mb.    in.   
------------------------------------------------------------------------
 240    6:30  109.0    76   60.8     3    114.2     4.2    999.0   0.00  
 240    6:40  135.0    76   60.2     2    168.3     3.6    999.0   0.00  
 240    6:50  161.0    78   67.1     2    100.4     3.0    999.0   0.00  
 240    7:00  187.0    78   66.3     3    110.1     4.8    999.0   0.00  
 240    7:10  213.0    77   71.9     4     87.7     6.6    999.0   0.00  
 240    7:20  241.0    78   73.0     4     84.4     7.2    999.0   0.00  
 240    7:30  269.0    78   68.6     5     77.7     7.2    999.0   0.00  
 240    7:40  296.0    79   65.8     5     83.3     7.8    999.0   0.00  
 240    7:50  323.0    80   61.9     6     75.9     8.4    999.0   0.00  
 240    8:00  351.0    80   61.3     6     69.2     7.8    999.0   0.00  
 240    8:10  377.0    82   55.4     4     71.5     5.4    999.0   0.00  
 240    8:20  402.0    82   52.3     5     54.9     6.6    999.0   0.00  
 240    8:30  428.0    82   49.8     4     80.1     6.0    999.0   0.00  
 240    8:40  453.0    84   48.6     3     39.7     4.8    999.0   0.00  
 240    8:50  476.0    84   52.0     4    356.3     5.4    999.0   0.00  
 240    9:00  498.0    82   58.4     4    325.0     5.4    999.0   0.00  
 240    9:10  520.0    81   61.6     3    333.8     5.4    999.0   0.00  
 240    9:20  542.0    81   61.5     4    333.8     6.0    999.0   0.00  
 240    9:30  563.0    82   58.7     3      0.1     5.4    999.0   0.00  
 240    9:40  583.0    83   57.7     4    353.5     6.0    999.0   0.00  
 240    9:50  602.0    83   52.8     4    341.1     6.6    999.0   0.00  
 240   10:00  618.0    83   57.3     4    346.0     6.6    999.0   0.00  
 240   10:10  634.0    82   60.4     5    340.2     6.6    999.0   0.00  
 240   10:20  648.0    81   59.8     4    333.1     6.0    999.0   0.00  
 240   10:30  662.0    82   56.4     4    333.2     6.6    999.0   0.00  
 240   10:40  675.0    83   50.1     4    343.2     6.6    999.0   0.00  
 240   10:50  686.0    83   46.2     4    325.7     7.2    999.0   0.00  
 240   11:00  696.0    84   44.7     5    333.6     7.2    999.0   0.00  
 240   11:10  705.0    84   41.5     4    329.8     7.2    999.0   0.00  
 240   11:20  714.0    85   39.6     4    343.2     6.0    999.0   0.00  
 240   11:30  720.0    86   38.5     4    350.8     6.6    999.0   0.00  
 240   11:40  724.0    85   41.4     4    342.6     7.2    999.0   0.00  
 240   11:50  726.0    84   45.5     6    349.7     7.8    999.0   0.00  
 240   12:00  726.0    83   48.9     6    343.1     7.8    999.0   0.00  
 240   12:10  726.0    82   52.8     5    345.8     7.8    999.0   0.00  
 240   12:20  725.0    82   51.3     4    344.6     6.0    999.0   0.00  
 240   12:30  721.0    83   51.8     4    348.9     6.6    999.0   0.00  
 240   12:40  715.0    82   51.8     5    353.7     7.2    999.0   0.00  
 240   12:50  709.0    84   50.1     5    348.9     8.4    999.0   0.00  
 240   13:00  701.0    84   49.0     6    347.8     8.4    999.0   0.00  
 240   13:10  693.0    85   48.0     4    358.8     6.6    999.0   0.00  
 240   13:20  682.0    85   49.3     5      0.7     7.8    999.0   0.00  
 240   13:30  672.0    85   47.9     4    359.4     7.2    999.0   0.00  
 240   13:40  659.0    86   45.7     4      3.9     7.2    999.0   0.00  
 240   13:50  645.0    87   45.4     5    354.4     8.4    999.0   0.00  
 240   14:00  627.0    85   48.0     5    352.3     7.2    999.0   0.00  
 240   14:10  612.0    86   45.6     4     10.5     6.0    999.0   0.00  
 240   14:20  595.0    88   42.3     3     14.5     5.4    999.0   0.00  
 240   14:30  577.0    90   39.6     4     51.0     6.6    999.0   0.00  
 240   14:40  555.0    89   39.9     6     62.7     7.8    999.0   0.00  
 240   14:50  534.0    88   42.3     4     86.0     7.2    999.0   0.00  
 240   15:00  508.0    88   42.8     4     82.7     7.8    999.0   0.00  
 240   15:10  487.0    90   39.1     4     45.3     6.0    999.0   0.00  
 240   15:20  465.0    91   36.7     5    327.1     6.6    999.0   0.00  
 240   15:30  440.0    90   37.2     4    340.4     7.8    999.0   0.00  
 240   15:40  416.0    88   40.0     4      0.6     7.2    999.0   0.00  
 240   15:50  390.0    88   36.5     6    346.8    10.2    999.0   0.00  
 240   16:00  363.0    86   39.7     6    339.1    10.8    999.0   0.00  
 240   16:10  337.0    86   46.2     5    359.2     7.8    999.0   0.00  
 240   16:20  308.0    86   48.2     4     15.4     7.8    999.0   0.00  
 240   16:30  281.0    86   45.7     4      6.7     9.0    999.0   0.00  
 240   16:40  253.0    86   46.2     4     24.0     6.6    999.0   0.00  
 240   16:50  226.0    86   39.5     3      9.0     5.4    999.0   0.00  
 240   17:00  199.0    86   37.7     3     39.8     6.6    999.0   0.00  
 240   17:10  172.0    85   39.9     3     48.5     6.0    999.0   0.00  
 240   17:20  145.0    85   40.7     2     16.1     8.4    999.0   0.00  
 240   17:30  119.0    84   44.7     2     35.1     4.8    999.0   0.00  
 240   17:40   94.0    82   53.4     3    356.9     5.4    999.0   0.00  
 240   17:50   69.0    80   59.9     4    311.5     6.6    999.0   0.00  
 240   18:00   38.0    78   65.9     4    301.1     8.4    999.0   0.00  
 240   18:10   13.0    76   66.3     2    326.5     4.8    999.0   0.00  
 240   18:20    9.0    76   64.5     1    120.4     3.0    999.0   0.00  
 240   18:30    4.0    76   58.4     2     42.8     5.4    999.0   0.00  
 240   18:40    1.0    77   50.0     3     49.5     7.2    999.0   0.00  
 240   18:50    0.0    76   58.5     3    112.5     4.8    999.0   0.00  
 240   19:00    0.0    76   53.5     4    114.4     5.4    999.0   0.00  
 240   19:10    0.0    77   48.7     3    120.0     5.4    999.0   0.00  
 240   19:20    0.0    77   46.4     2    121.1     4.8    999.0   0.00  
 240   19:30    0.0    76   49.5     4    115.7     6.0    999.0   0.00  
 240   19:40    0.0    76   48.5     4    120.9     6.6    999.0   0.00  
 240   19:50    0.0    77   46.9     4    110.6     6.6    999.0   0.00  
 240   20:00    0.0    77   50.9     4     86.7     4.8    999.0   0.00  
 240   20:10    0.0    76   57.5     2    117.8     3.6    999.0   0.00  
 240   20:20    0.0    75   56.2     3    131.3     3.6    999.0   0.00  
 240   20:30    0.0    74   54.2     2    135.4     3.6    999.0   0.00  
 240   20:40    0.0    75   55.7     4    117.8     6.0    999.0   0.00  
 240   20:50    0.0    76   54.8     2     99.9     4.2    999.0   0.00  
 240   21:00    0.0    76   54.1     2    200.0     4.2    999.0   0.00  
 240   21:10    0.0    76   51.9     2    262.4     4.2    999.0   0.00  
 240   21:20    0.0    75   54.5     1    307.2     1.8    999.0   0.00  
 240   21:30    0.0    74   55.7     2    107.2     3.6    999.0   0.00  
 240   21:40    0.0    73   60.7     3    129.0     4.2    999.0   0.00  
 240   21:50    0.0    73   62.4     4    146.6     4.8    999.0   0.00  
 240   22:00    0.0    74   55.4     3    135.6     5.4    999.0   0.00  
 240   22:10    0.0    75   54.4     4    117.1     7.2    999.0   0.00  
 240   22:20    0.0    75   56.7     4    124.2     7.2    999.0   0.00  
 240   22:30    0.0    74   60.7     3    109.2     4.2    999.0   0.00  
 240   22:40    0.0    73   60.5     3    142.6     4.2    999.0   0.00  
 240   22:50    0.0    72   62.4     2    124.8     3.0    999.0   0.00  
 240   23:00    0.0    73   63.4     2    183.7     2.4    999.0   0.00  
 240   23:10    0.0    73   61.4     3    216.3     4.2    999.0   0.00  
 240   23:20    0.0    74   63.2     2    303.0     3.6    999.0   0.00  
 240   23:30    0.0    72   70.0     2    308.1     3.6    999.0   0.00  
 240   23:40    0.0    72   72.3     1    183.6     2.4    999.0   0.00  
 240   23:50    0.0    71   69.2     2    156.0     3.0    999.0   0.00  
 241    0:00    0.0    71   70.4     1    210.3     2.4    999.0   0.00  
 241    0:10    0.0    72   71.7     1    230.4     2.4    999.0   0.00  
 241    0:20    0.0    72   73.5     2    309.5     3.0    999.0   0.00  
 241    0:30    0.0    71   74.3     3    235.0     4.2    999.0   0.00  
 241    0:40    0.0    71   75.4     1    192.0     2.4    999.0   0.00  
 241    0:50    0.0    70   78.1     1    171.8     3.0    999.0   0.00  
 241    1:00    0.0    70   80.4     1    162.2     3.0    999.0   0.00  
 241    1:10    0.0    70   80.5     1    145.9     1.8    999.0   0.00  
 241    1:20    0.0    70   81.3     1    222.9     2.4    999.0   0.00  
 241    1:30    0.0    70   80.1     1    194.6     3.0    999.0   0.00  
 241    1:40    0.0    70   80.5     3    165.4     3.6    999.0   0.00  
 241    1:50    0.0    70   80.2     3    158.0     4.8    999.0   0.00  
 241    2:00    0.0    70   81.5     1    150.9     3.0    999.0   0.00  
 241    2:10    0.0    70   80.6     2    165.3     3.6    999.0   0.00  
 241    2:20    0.0    71   79.3     1    216.9     2.4    999.0   0.00  
 241    2:30    0.0    70   76.8     3    149.5     3.6    999.0   0.00  
 241    2:40    0.0    73   69.5     2    131.3     4.2    999.0   0.00  
 241    2:50    0.0    72   68.0     2    212.6     3.6    999.0   0.00  
 241    3:00    0.0    71   66.3     3    156.6     4.2    999.0   0.00  
 241    3:10    0.0    72   68.0     4    120.2     6.0    999.0   0.00  
 241    3:20    0.0    72   70.1     3    123.0     5.4    999.0   0.00  
 241    3:30    0.0    72   72.0     4    117.2     7.2    999.0   0.00  
 241    3:40    0.0    72   72.9     6    117.2     7.8    999.0   0.00  
 241    3:50    0.0    73   70.9     7    114.1     9.6    999.0   0.00  
 241    4:00    0.0    73   71.7     5    105.6     7.2    999.0   0.00  
 241    4:10    0.0    73   73.0     5    106.4     7.8    999.0   0.00  
 241    4:20    0.0    72   73.0     4     97.3     6.0    999.0   0.00  
 241    4:30    0.0    73   64.3     2    188.4     4.2    999.0   0.00  
 241    4:40    0.0    74   60.0     2    321.6     4.8    999.0   0.00  
 241    4:50    0.0    72   66.3     1    215.1     3.0    999.0   0.00  
 241    5:00    0.0    72   70.0     1    135.6     3.6    999.0   0.00  
 241    5:10    0.0    71   74.9     3    322.5     6.0    999.0   0.00  
 241    5:20    0.0    70   79.4     2    178.8     3.6    999.0   0.00  
 241    5:30    2.0    71   77.6     1     49.6     2.4    999.0   0.00  
 241    5:40    8.0    71   79.1     1    230.4     2.4    999.0   0.00  
 241    5:50   18.0    71   80.0     1     52.0     2.4    999.0   0.00  
 241    6:00   36.0    71   82.0     2    335.5     3.6    999.0   0.00  
 241    6:10   61.0    72   81.4     1    359.2     3.0    999.0   0.00  
 241    6:20   87.0    74   79.0     1     44.8     2.4    999.0   0.00  

Return to Parsons Landing graphs page.


Western Regional Climate Center,wrcc@dri.edu